Location: Newark
(41.0400°S, 62.7845°W)
Time: 07:41:31
(UTC+00:00)

Envisat - Pass Details

Date: 30 October 2021
Orbit: 764 x 766 km, 98.2° (Epoch: 30 November)

Event Time Altitude Azimuth Distance (km) Brightness Sun altitude
Rises 07:39:33 0° 38° (NE) 3,226 6.3 -14.5°
Reaches altitude 10° 07:41:59 10° 46° (NE) 2,309 5.6 -14.1°
Maximum altitude 07:46:37 36° 111° (ESE) 1,210 4.7 -13.4°
Drops below altitude 10° 07:51:17 10° 176° (S) 2,336 6.0 -12.6°
Sets 07:53:46 0° 184° (S) 3,270 6.7 -12.2°
